• En España
  • Lista de países
  • Para 7 días
  • Temperatura del agua
  • Mapa Satelital
  • El tiempo en el mapa
  • Informadores
  • user-avatar
    Iniciar sesión

    Tiempo cada hora Karak

    Hoy, 15 Noviembre, Jueves

    Tiempo Temperatura Precipitaciones Viento Presión Humedad
    00:00 +13°C° 0 mm 2 mps 677 mmHg 75%
    01:00 +12°C° 0 mm 2 mps 677 mmHg 77%
    02:00 +12°C° 0 mm 2 mps 677 mmHg 79%
    03:00 +12°C° 0 mm 2 mps 677 mmHg 80%
    04:00 +10°C° 0 mm 2 mps 677 mmHg 81%
    05:00 +11°C° 0 mm 1 mps 678 mmHg 82%
    06:00 +12°C° 0 mm 2 mps 678 mmHg 78%
    07:00 +12°C° 0 mm 2 mps 678 mmHg 75%
    08:00 +13°C° 0 mm 2 mps 679 mmHg 71%
    09:00 +14°C° 0 mm 2 mps 679 mmHg 66%
    10:00 +15°C° 0 mm 2 mps 679 mmHg 61%
    11:00 +16°C° 0 mm 2 mps 679 mmHg 56%
    12:00 +16°C° 0 mm 3 mps 679 mmHg 54%
    13:00 +16°C° 0 mm 3 mps 679 mmHg 52%
    14:00 +17°C° 0 mm 3 mps 679 mmHg 50%
    15:00 +16°C° 0 mm 3 mps 679 mmHg 53%
    16:00 +16°C° 0 mm 3 mps 679 mmHg 56%
    17:00 +14°C° 0 mm 3 mps 679 mmHg 59%
    18:00 +15°C° 0 mm 2 mps 680 mmHg 61%
    19:00 +14°C° 0 mm 2 mps 680 mmHg 63%
    20:00 +14°C° 0 mm 2 mps 680 mmHg 65%
    21:00 +13°C° 0 mm 2 mps 680 mmHg 66%
    22:00 +13°C° 0 mm 2 mps 680 mmHg 66%
    23:00 +13°C° 0 mm 2 mps 681 mmHg 67%

    Mañana, 16 Noviembre, Viernes

    Tiempo Temperatura Precipitaciones Viento Presión Humedad
    00:00 +12°C° 0 mm 2 mps 681 mmHg 67%
    01:00 +12°C° 0 mm 2 mps 681 mmHg 68%
    02:00 +12°C° 0 mm 2 mps 681 mmHg 68%
    03:00 +10°C° 0 mm 2 mps 681 mmHg 69%
    04:00 +10°C° 0 mm 2 mps 681 mmHg 70%
    05:00 +10°C° 0 mm 2 mps 681 mmHg 71%
    06:00 +12°C° 0 mm 2 mps 682 mmHg 67%
    07:00 +12°C° 0 mm 2 mps 682 mmHg 63%
    08:00 +13°C° 0 mm 2 mps 683 mmHg 59%
    09:00 +13°C° 0 mm 3 mps 683 mmHg 55%
    10:00 +14°C° 0 mm 3 mps 683 mmHg 50%
    11:00 +17°C° 0 mm 4 mps 684 mmHg 46%
    12:00 +17°C° 0 mm 4 mps 684 mmHg 44%
    13:00 +17°C° 0 mm 4 mps 684 mmHg 42%
    14:00 +18°C° 0 mm 4 mps 684 mmHg 41%
    15:00 +17°C° 0 mm 4 mps 684 mmHg 44%
    16:00 +16°C° 0 mm 3 mps 684 mmHg 48%
    17:00 +16°C° 0 mm 3 mps 684 mmHg 51%
    18:00 +15°C° 0 mm 2 mps 684 mmHg 55%
    19:00 +15°C° 0 mm 2 mps 684 mmHg 59%
    20:00 +14°C° 0 mm 1 mps 685 mmHg 63%
    21:00 +14°C° 0 mm 1 mps 685 mmHg 66%
    22:00 +13°C° 0 mm 1 mps 685 mmHg 69%
    23:00 +13°C° 0 mm 1 mps 685 mmHg 72%

    Pasado mañana, 17 Noviembre, Sábado

    Tiempo Temperatura Precipitaciones Viento Presión Humedad
    00:00 +12°C° 0 mm 1 mps 685 mmHg 73%
    01:00 +11°C° 0 mm 0 mps 685 mmHg 75%
    02:00 +11°C° 0 mm 0 mps 684 mmHg 76%
    03:00 +11°C° 0 mm 0 mps 684 mmHg 77%
    04:00 +10°C° 0 mm 0 mps 684 mmHg 79%
    05:00 +10°C° 0 mm 0 mps 684 mmHg 80%
    06:00 +12°C° 0 mm 1 mps 685 mmHg 75%
    07:00 +13°C° 0 mm 1 mps 685 mmHg 70%
    08:00 +14°C° 0 mm 1 mps 686 mmHg 65%
    09:00 +15°C° 0 mm 1 mps 686 mmHg 58%
    10:00 +16°C° 0 mm 2 mps 686 mmHg 51%
    11:00 +18°C° 0 mm 2 mps 686 mmHg 44%
    12:00 +18°C° 0 mm 2 mps 686 mmHg 42%
    13:00 +19°C° 0 mm 2 mps 685 mmHg 39%
    14:00 +20°C° 0 mm 2 mps 685 mmHg 36%
    15:00 +19°C° 0 mm 2 mps 685 mmHg 39%
    16:00 +18°C° 0 mm 2 mps 684 mmHg 42%
    17:00 +18°C° 0 mm 1 mps 684 mmHg 46%
    18:00 +18°C° 0 mm 1 mps 684 mmHg 47%
    19:00 +16°C° 0 mm 1 mps 684 mmHg 49%
    20:00 +16°C° 0 mm 1 mps 685 mmHg 51%
    21:00 +15°C° 0 mm 2 mps 684 mmHg 52%
    22:00 +15°C° 0 mm 2 mps 684 mmHg 53%
    23:00 +15°C° 0 mm 2 mps 684 mmHg 53%

    18 Noviembre, Domingo

    Tiempo Temperatura Precipitaciones Viento Presión Humedad
    00:00 +14°C° 0 mm 2 mps 684 mmHg 53%
    01:00 +14°C° 0 mm 2 mps 684 mmHg 52%
    02:00 +14°C° 0 mm 2 mps 684 mmHg 51%
    03:00 +14°C° 0 mm 2 mps 683 mmHg 50%
    04:00 +13°C° 0 mm 2 mps 683 mmHg 49%
    05:00 +13°C° 0 mm 2 mps 683 mmHg 48%
    06:00 +14°C° 0 mm 2 mps 683 mmHg 45%
    07:00 +15°C° 0 mm 2 mps 684 mmHg 42%
    08:00 +16°C° 0 mm 3 mps 684 mmHg 40%
    09:00 +18°C° 0 mm 3 mps 684 mmHg 35%
    10:00 +19°C° 0 mm 3 mps 684 mmHg 31%
    11:00 +21°C° 0 mm 3 mps 684 mmHg 26%
    12:00 +21°C° 0 mm 3 mps 684 mmHg 25%
    13:00 +22°C° 0 mm 3 mps 683 mmHg 23%
    14:00 +22°C° 0 mm 3 mps 683 mmHg 22%
    15:00 +21°C° 0 mm 2 mps 683 mmHg 24%
    16:00 +20°C° 0 mm 2 mps 682 mmHg 27%
    17:00 +19°C° 0 mm 2 mps 682 mmHg 30%
    18:00 +19°C° 0 mm 2 mps 682 mmHg 31%
    19:00 +18°C° 0 mm 2 mps 682 mmHg 33%
    20:00 +18°C° 0 mm 2 mps 682 mmHg 34%
    21:00 +17°C° 0 mm 3 mps 682 mmHg 35%
    22:00 +17°C° 0 mm 3 mps 682 mmHg 37%
    23:00 +17°C° 0 mm 3 mps 681 mmHg 38%

    19 Noviembre, Lunes

    Tiempo Temperatura Precipitaciones Viento Presión Humedad
    00:00 +17°C° 0 mm 2 mps 681 mmHg 40%
    01:00 +16°C° 0 mm 2 mps 681 mmHg 42%
    02:00 +16°C° 0 mm 2 mps 680 mmHg 44%
    03:00 +15°C° 0 mm 2 mps 680 mmHg 46%
    04:00 +15°C° 0 mm 1 mps 680 mmHg 49%
    05:00 +14°C° 0 mm 1 mps 680 mmHg 51%
    06:00 +15°C° 0 mm 1 mps 681 mmHg 49%
    07:00 +16°C° 0 mm 1 mps 681 mmHg 47%
    08:00 +18°C° 0 mm 1 mps 682 mmHg 44%
    09:00 +19°C° 0 mm 1 mps 682 mmHg 41%
    10:00 +19°C° 0 mm 2 mps 682 mmHg 37%
    11:00 +20°C° 0 mm 2 mps 682 mmHg 34%
    12:00 +20°C° 0 mm 2 mps 682 mmHg 32%
    13:00 +21°C° 0 mm 3 mps 682 mmHg 30%
    14:00 +21°C° 0 mm 3 mps 682 mmHg 28%
    15:00 +20°C° 0 mm 3 mps 682 mmHg 30%
    16:00 +19°C° 0 mm 2 mps 682 mmHg 32%
    17:00 +18°C° 0 mm 2 mps 682 mmHg 34%
    18:00 +17°C° 0 mm 2 mps 682 mmHg 37%
    19:00 +17°C° 0 mm 2 mps 682 mmHg 39%
    20:00 +16°C° 0 mm 1 mps 683 mmHg 42%
    21:00 +15°C° 0 mm 1 mps 683 mmHg 45%
    22:00 +15°C° 0 mm 1 mps 683 mmHg 49%
    23:00 +14°C° 0 mm 1 mps 683 mmHg 53%

    20 Noviembre, Martes

    Tiempo Temperatura Precipitaciones Viento Presión Humedad
    00:00 +14°C° 0 mm 1 mps 683 mmHg 56%
    01:00 +13°C° 0 mm 1 mps 682 mmHg 59%
    02:00 +13°C° 0 mm 1 mps 682 mmHg 63%
    03:00 +13°C° 0 mm 1 mps 682 mmHg 65%
    04:00 +12°C° 0 mm 1 mps 683 mmHg 67%
    05:00 +12°C° 0 mm 1 mps 683 mmHg 69%
    06:00 +13°C° 0 mm 1 mps 683 mmHg 64%
    07:00 +14°C° 0 mm 1 mps 684 mmHg 59%
    08:00 +15°C° 0 mm 1 mps 685 mmHg 54%
    09:00 +16°C° 0 mm 1 mps 685 mmHg 48%
    10:00 +18°C° 0 mm 1 mps 685 mmHg 42%
    11:00 +19°C° 0 mm 1 mps 685 mmHg 35%
    12:00 +20°C° 0 mm 1 mps 685 mmHg 33%
    13:00 +20°C° 0 mm 1 mps 684 mmHg 30%
    14:00 +21°C° 0 mm 1 mps 684 mmHg 28%
    15:00 +20°C° 0 mm 1 mps 684 mmHg 30%
    16:00 +19°C° 0 mm 1 mps 684 mmHg 33%
    17:00 +19°C° 0 mm 1 mps 684 mmHg 36%
    18:00 +18°C° 0 mm 1 mps 684 mmHg 38%
    19:00 +16°C° 0 mm 1 mps 684 mmHg 41%
    20:00 +16°C° 0 mm 1 mps 684 mmHg 43%
    21:00 +15°C° 0 mm 1 mps 684 mmHg 44%
    22:00 +15°C° 0 mm 1 mps 684 mmHg 46%
    23:00 +15°C° 0 mm 1 mps 684 mmHg 47%
    Mostrar más